FW8740 Weather Reports


Display with metric or nautical units.
time (UTC)temp
F
wind
direction
speed
MPH
gust
MPH
rain 1hr
in
rain 24hr
in
rain mn
in
humidity
%
barometer
mb
20260507144227 55 87 1.0 8.0 0.00 0.18 0.18 76 1013.4
20260507143723 55 31 5.0 7.0 0.00 0.18 0.18 78 1013.4
20260507143221 56 71 2.0 3.0 0.00 0.18 0.18 82 1013.5
20260507142716 54 77 1.0 3.0 0.00 0.18 0.18 84 1013.4
20260507142213 54 53 1.0 5.0 0.00 0.18 0.18 85 1013.3
20260507141709 54 296 3.0 6.0 0.00 0.18 0.18 86 1013.5
20260507141207 54 42 1.0 1.0 0.00 0.18 0.18 87 1013.4
20260507140703 53 123 1.0 2.0 0.00 0.18 0.18 88 1013.5
20260507140201 53 91 1.0 1.0 0.00 0.18 0.18 89 1013.6
20260507135657 51 86 1.0 5.0 0.00 0.18 0.18 89 1013.6
20260507135155 53 54 2.0 3.0 0.00 0.18 0.18 89 1013.7
20260507134651 52 100 0.0 2.0 0.00 0.18 0.18 90 1013.7
20260507134147 52 41 2.0 3.0 0.00 0.18 0.18 90 1014.0
20260507133643 52 81 1.0 1.0 0.00 0.18 0.18 91 1013.7
20260507133141 50 71 1.0 8.0 0.00 0.18 0.18 91 1013.7
20260507132638 51 101 3.0 5.0 0.00 0.18 0.18 91 1013.7
20260507132134 51 62 1.0 6.0 0.00 0.18 0.18 91 1013.5
20260507131631 51 81 1.0 5.0 0.00 0.18 0.18 91 1013.5
20260507131128 51 58 2.0 3.0 0.00 0.18 0.18 91 1013.4
20260507130624 51 108 1.0 5.0 0.00 0.18 0.18 92 1013.3
20260507130123 50 65 3.0 6.0 0.00 0.18 0.18 92 1013.7
20260507125621 50 53 1.0 2.0 0.00 0.18 0.18 93 1013.7
20260507125119 49 88 3.0 5.0 0.00 0.18 0.18 93 1013.6
20260507124614 49 80 1.0 2.0 0.00 0.18 0.18 93 1013.7
20260507124113 49 55 1.0 3.0 0.00 0.18 0.18 93 1013.8
20260507123610 49 58 1.0 3.0 0.00 0.18 0.18 93 1013.8
20260507123107 48 93 0.0 5.0 0.00 0.18 0.18 94 1013.7
20260507122602 48 71 1.0 1.0 0.00 0.18 0.18 94 1013.7
20260507122058 48 74 2.0 2.0 0.00 0.18 0.18 94 1013.7
20260507121554 48 88 1.0 2.0 0.00 0.18 0.18 94 1013.6
20260507121050 48 92 0.0 1.0 0.00 0.18 0.18 94 1013.6
20260507120547 48 58 1.0 2.0 0.00 0.18 0.18 94 1013.4
20260507120044 48 111 0.0 1.0 0.00 0.18 0.18 94 1013.7
20260507115540 47 87 1.0 1.0 0.00 0.18 0.18 94 1013.3
20260507115036 48 103 0.0 1.0 0.00 0.18 0.18 94 1013.5
20260507114532 48 111 0.0 1.0 0.00 0.18 0.18 94 1013.4
20260507114029 48 105 0.0 0.0 0.00 0.18 0.18 94 1013.5
20260507113526 48 106 0.0 0.0 0.00 0.18 0.18 94 1013.3
20260507113024 47 89 0.0 1.0 0.00 0.18 0.18 94 1013.2
20260507112521 47 96 0.0 0.0 0.00 0.18 0.18 94 1013.1
20260507112018 48 106 0.0 0.0 0.00 0.18 0.18 94 1012.8
20260507111515 48 107 0.0 0.0 0.00 0.18 0.18 94 1013.1
20260507111011 47 100 0.0 0.0 0.00 0.18 0.18 94 1013.3
20260507110508 47 99 0.0 0.0 0.00 0.18 0.18 94 1013.2
20260507110005 47 92 0.0 1.0 0.00 0.18 0.18 94 1012.9
20260507105501 47 94 0.0 1.0 0.00 0.18 0.18 94 1012.8
20260507104957 47 81 0.0 1.0 0.00 0.18 0.18 94 1012.7
20260507104455 47 89 0.0 1.0 0.00 0.18 0.18 94 1012.5
20260507103950 47 88 0.0 0.0 0.00 0.18 0.18 94 1012.7
20260507103447 47 86 0.0 1.0 0.00 0.18 0.18 94 1012.6
20260507102943 47 91 0.0 1.0 0.00 0.18 0.18 94 1012.6
20260507102440 47 95 1.0 1.0 0.00 0.18 0.18 94 1012.2
20260507101937 47 81 0.0 1.0 0.00 0.18 0.18 94 1012.3
20260507101432 47 96 0.0 0.0 0.00 0.18 0.18 94 1012.2
20260507100928 47 100 0.0 0.0 0.00 0.18 0.18 94 1012.2
20260507100426 48 96 0.0 0.0 0.00 0.18 0.18 94 1012.1
20260507095924 48 94 0.0 1.0 0.00 0.18 0.18 94 1012.3
20260507095421 48 97 0.0 1.0 0.00 0.18 0.18 94 1012.3
20260507094918 48 118 0.0 0.0 0.00 0.18 0.18 94 1012.4
20260507094414 48 120 0.0 2.0 0.00 0.18 0.18 94 1012.0
20260507093911 48 104 0.0 2.0 0.00 0.18 0.18 94 1012.1
20260507093409 48 119 1.0 1.0 0.00 0.18 0.18 94 1012.2
20260507092908 48 85 1.0 1.0 0.00 0.18 0.18 94 1012.0
20260507092403 48 60 2.0 3.0 0.00 0.18 0.18 94 1011.8
20260507091900 48 79 1.0 7.0 0.00 0.18 0.18 94 1012.3
20260507091356 48 74 1.0 3.0 0.00 0.18 0.18 94 1011.9
20260507090852 48 95 0.0 1.0 0.00 0.18 0.18 94 1012.0
20260507090349 48 57 1.0 5.0 0.00 0.18 0.18 94 1011.9
20260507085846 49 71 0.0 2.0 0.00 0.18 0.18 94 1011.7
20260507085343 49 88 1.0 1.0 0.05 0.18 0.18 94 1012.2
20260507084840 48 73 1.0 1.0 0.05 0.18 0.18 94 1011.7
20260507084336 49 5 0.0 2.0 0.00 0.17 0.17 94 1012.0
20260507083834 49 60 2.0 3.0 0.07 0.17 0.17 94 1011.9
20260507083330 49 85 0.0 1.0 0.12 0.17 0.17 94 1012.1
20260507082826 49 94 1.0 1.0 0.05 0.16 0.16 94 1011.9
20260507082322 49 56 2.0 2.0 0.07 0.15 0.15 94 1012.1
20260507081819 49 95 0.0 1.0 0.05 0.14 0.14 94 1012.2
20260507081315 49 77 0.0 0.0 0.12 0.14 0.14 94 1012.0
20260507080812 49 92 0.0 2.0 0.14 0.13 0.13 94 1012.1
20260507080308 49 91 0.0 1.0 0.07 0.12 0.12 94 1012.1
20260507075803 49 93 1.0 1.0 0.00 0.11 0.11 94 1012.3
20260507075300 49 93 0.0 0.0 0.05 0.11 0.11 94 1012.3
20260507074756 50 66 0.0 1.0 0.05 0.11 0.11 94 1012.0
20260507074255 50 99 0.0 1.0 0.00 0.10 0.10 94 1012.1
20260507073751 50 88 1.0 2.0 0.00 0.10 0.10 94 1012.3
20260507073248 50 67 0.0 3.0 0.07 0.10 0.10 94 1012.3
20260507072746 50 96 0.0 1.0 0.07 0.10 0.10 94 1012.0
20260507072243 50 55 1.0 2.0 0.00 0.09 0.09 94 1012.0
20260507071740 50 98 0.0 1.0 0.05 0.09 0.09 94 1012.1
20260507071236 50 78 0.0 1.0 0.05 0.09 0.09 94 1011.9
20260507070733 50 83 1.0 1.0 0.07 0.08 0.08 94 1011.8
20260507070230 50 65 1.0 2.0 0.12 0.08 0.08 94 1012.2
20260507065727 50 68 0.0 1.0 0.12 0.07 0.07 94 1012.2
20260507065224 51 88 1.0 2.0 0.12 0.06 0.06 94 1012.4
20260507064721 50 96 0.0 1.0 0.05 0.05 0.05 94 1012.0
20260507064220 51 78 0.0 1.0 0.00 0.04 0.04 93 1011.9
20260507063717 51 130 0.0 1.0 0.07 0.04 0.04 94 1011.6
20260507063213 51 130 2.0 5.0 0.07 0.04 0.04 93 1011.8
20260507062710 51 75 0.0 1.0 0.00 0.03 0.03 94 1011.3
20260507062208 51 125 0.0 1.0 0.00 0.03 0.03 93 1011.4
20260507061706 51 49 1.0 3.0 0.00 0.03 0.03 93 1011.7
20260507061203 51 95 0.0 0.0 0.00 0.03 0.03 93 1011.7
20260507060701 51 115 1.0 1.0 0.00 0.03 0.03 93 1012.0
20260507060157 51 76 0.0 1.0 0.05 0.03 0.03 93 1011.7
20260507055653 51 68 1.0 2.0 0.12 0.03 0.03 93 1011.8
20260507055149 52 70 1.0 1.0 0.07 0.02 0.02 93 1011.3
20260507054645 52 68 1.0 5.0 0.00 0.01 0.01 93 1011.4
20260507054142 52 86 1.0 1.0 0.00 0.01 0.01 93 1011.1
20260507053641 52 103 1.0 2.0 0.05 0.01 0.01 93 1010.9
20260507053138 52 70 1.0 2.0 0.05 0.01 0.01 93 1011.3
20260507052637 52 68 1.0 1.0 0.00 0.00 0.00 93 1011.3
20260507052132 53 61 2.0 3.0 0.00 0.00 0.00 93 1011.5
20260507051630 53 70 1.0 6.0 0.00 0.00 0.00 93 1011.5
20260507051127 53 97 1.0 2.0 0.00 0.00 0.00 93 1011.5
20260507050624 53 55 1.0 3.0 0.00 0.00 0.00 93 1011.8
20260507050120 53 80 1.0 2.0 0.00 0.00 0.00 93 1011.2
20260507045617 53 69 3.0 3.0 0.00 0.00 0.00 93 1011.1
20260507045114 54 86 3.0 3.0 0.00 0.00 0.00 94 1011.7
20260507044611 54 347 1.0 2.0 0.00 0.00 0.00 94 1011.5
20260507044108 54 93 0.0 3.0 0.00 0.00 0.00 94 1011.7
20260507043603 54 154 0.0 1.0 0.00 0.00 0.00 94 1011.3
20260507043101 54 49 1.0 3.0 0.00 0.00 0.00 94 1011.4
20260507042556 54 71 1.0 2.0 0.00 0.00 0.00 94 1011.9
20260507042052 54 98 0.0 2.0 0.00 0.00 0.00 94 1011.7
20260507041549 54 78 0.0 1.0 0.00 0.00 0.00 94 1011.6
20260507041046 54 72 1.0 2.0 0.00 0.00 0.00 94 1011.5
20260507040543 54 73 1.0 2.0 0.00 0.00 0.00 94 1011.7
20260507040039 54 31 1.0 3.0 0.00 0.00 0.00 94 1011.4
20260507035535 54 196 2.0 2.0 0.00 0.12 0.12 94 1011.4
20260507035032 54 92 1.0 2.0 0.00 0.12 0.12 94 1011.2
20260507034528 54 80 1.0 1.0 0.00 0.12 0.12 94 1011.4
20260507034026 54 65 0.0 1.0 0.00 0.12 0.12 94 1011.4
20260507033524 54 91 0.0 2.0 0.00 0.12 0.12 94 1011.2
20260507033021 54 84 0.0 1.0 0.00 0.12 0.12 94 1011.1
20260507032518 55 75 1.0 2.0 0.00 0.12 0.12 94 1011.1
20260507032014 55 96 0.0 2.0 0.00 0.12 0.12 94 1011.3
20260507031510 55 63 3.0 6.0 0.00 0.12 0.12 94 1011.4
20260507031008 55 82 0.0 2.0 0.00 0.12 0.12 95 1011.3
20260507030504 55 95 0.0 1.0 0.00 0.12 0.12 95 1011.4
20260507030002 55 95 1.0 3.0 0.00 0.12 0.12 95 1011.6
20260507025459 55 89 1.0 3.0 0.00 0.12 0.12 95 1011.6
20260507024957 55 76 1.0 1.0 0.00 0.12 0.12 95 1011.8
20260507024454 55 94 0.0 1.0 0.00 0.12 0.12 95 1011.7
20260507023950 55 99 0.0 2.0 0.00 0.12 0.12 95 1011.7
20260507023447 56 87 1.0 1.0 0.00 0.12 0.12 95 1011.7
20260507022944 56 74 1.0 2.0 0.00 0.12 0.12 95 1011.5
20260507022441 56 74 1.0 2.0 0.00 0.12 0.12 95 1011.5
20260507021936 56 83 1.0 1.0 0.00 0.12 0.12 95 1011.6
20260507021432 56 91 0.0 2.0 0.00 0.12 0.12 95 1011.5
20260507020930 56 66 1.0 2.0 0.00 0.12 0.12 95 1011.5
20260507020426 57 78 2.0 2.0 0.00 0.12 0.12 95 1011.4
20260507015923 57 68 1.0 1.0 0.00 0.12 0.12 95 1011.5
20260507015422 58 92 0.0 1.0 0.00 0.12 0.12 95 1011.4
20260507014918 58 107 1.0 2.0 0.00 0.12 0.12 95 1011.4
20260507014415 58 44 1.0 2.0 0.00 0.12 0.12 95 1011.2
20260507013911 58 111 0.0 0.0 0.00 0.12 0.12 95 1010.8
20260507013408 58 112 0.0 0.0 0.07 0.12 0.12 95 1011.2
20260507012906 58 105 0.0 0.0 0.07 0.12 0.12 95 1011.2
20260507012402 58 115 0.0 0.0 0.00 0.11 0.11 95 1011.0
20260507011859 58 117 0.0 0.0 0.00 0.11 0.11 95 1010.9
20260507011355 58 127 0.0 1.0 0.00 0.11 0.11 95 1010.9
20260507010849 58 127 0.0 0.0 0.00 0.11 0.11 95 1010.8
20260507010345 58 119 0.0 0.0 0.00 0.11 0.11 95 1010.9
20260507005843 58 123 0.0 0.0 0.00 0.11 0.11 95 1010.9
20260507005339 58 124 0.0 1.0 0.00 0.11 0.11 95 1010.9
20260507004836 58 124 0.0 1.0 0.00 0.11 0.11 94 1010.7
20260507004333 58 127 0.0 1.0 0.00 0.11 0.11 94 1010.7
20260507003830 58 152 1.0 2.0 0.00 0.11 0.11 94 1010.5
20260507003326 58 117 0.0 1.0 0.00 0.11 0.11 94 1010.7
20260507002821 58 140 1.0 1.0 0.00 0.11 0.11 94 1010.6
20260507002317 58 131 1.0 1.0 0.00 0.11 0.11 94 1010.6
20260507001815 58 124 0.0 1.0 0.00 0.11 0.11 94 1010.8
20260507001312 58 122 0.0 1.0 0.00 0.11 0.11 94 1010.6
20260507000808 59 139 1.0 1.0 0.00 0.11 0.11 94 1010.7
20260507000306 59 124 0.0 1.0 0.00 0.11 0.11 94 1010.7
20260506235800 59 126 0.0 1.0 0.00 0.11 0.11 94 1010.4
20260506235256 59 125 0.0 1.0 0.00 0.11 0.11 94 1010.5
20260506234753 59 134 1.0 2.0 0.00 0.11 0.11 94 1010.3
20260506234250 59 132 1.0 1.0 0.00 0.11 0.11 94 1010.3
20260506233743 59 131 0.0 2.0 0.00 0.11 0.11 94 1010.2
20260506233239 59 138 1.0 1.0 0.00 0.11 0.11 94 1010.3
20260506232735 59 133 1.0 1.0 0.00 0.11 0.11 94 1010.4
20260506232230 59 134 1.0 1.0 0.00 0.11 0.11 94 1010.3
20260506231728 59 143 1.0 2.0 0.00 0.11 0.11 94 1010.6
20260506231226 59 116 0.0 1.0 0.00 0.11 0.11 94 1010.6
20260506230722 59 128 0.0 1.0 0.00 0.11 0.11 94 1010.8
20260506230219 59 122 0.0 0.0 0.00 0.11 0.11 94 1010.6
20260506225716 59 120 0.0 0.0 0.00 0.11 0.11 94 1010.3
20260506225213 59 123 0.0 1.0 0.00 0.11 0.11 94 1010.3
20260506224709 59 119 0.0 1.0 0.00 0.11 0.11 94 1010.3
20260506224207 59 124 0.0 0.0 0.00 0.11 0.11 94 1010.2
20260506223703 59 125 0.0 0.0 0.00 0.11 0.11 94 1010.3
20260506223158 59 120 0.0 1.0 0.00 0.11 0.11 94 1010.3
20260506222656 59 119 0.0 1.0 0.00 0.11 0.11 94 1010.2
20260506222151 59 120 0.0 1.0 0.00 0.11 0.11 94 1010.1
20260506221650 59 132 1.0 1.0 0.00 0.11 0.11 94 1010.2
20260506221147 59 125 0.0 1.0 0.00 0.11 0.11 94 1010.1
20260506220644 59 152 1.0 1.0 0.00 0.11 0.11 94 1010.0
20260506220139 59 126 0.0 1.0 0.00 0.11 0.11 94 1010.0
20260506215636 59 169 1.0 1.0 0.00 0.11 0.11 94 1010.1
20260506215131 59 227 2.0 2.0 0.00 0.11 0.11 94 1010.0
20260506214628 59 152 1.0 2.0 0.00 0.11 0.11 94 1009.8
20260506214126 59 116 0.0 1.0 0.00 0.11 0.11 94 1009.6
20260506213624 59 142 1.0 2.0 0.00 0.11 0.11 94 1009.8
20260506213121 60 154 1.0 2.0 0.00 0.11 0.11 93 1009.9
20260506212618 60 126 0.0 1.0 0.00 0.11 0.11 93 1009.8
20260506212113 60 135 1.0 2.0 0.00 0.11 0.11 93 1009.9
20260506211609 60 115 0.0 0.0 0.00 0.11 0.11 93 1009.7
20260506211106 60 126 0.0 0.0 0.00 0.11 0.11 93 1009.7
20260506210603 59 4 2.0 3.0 0.00 0.11 0.11 93 1009.6
20260506210059 59 128 0.0 0.0 0.00 0.11 0.11 93 1009.7
20260506205556 59 132 0.0 2.0 0.00 0.11 0.11 93 1009.5
20260506205051 59 127 0.0 1.0 0.00 0.11 0.11 93 1009.4
20260506204549 59 124 0.0 1.0 0.00 0.11 0.11 93 1009.7
20260506204046 60 124 0.0 1.0 0.00 0.11 0.11 93 1009.7
20260506203544 59 126 0.0 1.0 0.00 0.11 0.11 93 1009.5
20260506203040 59 119 0.0 1.0 0.07 0.11 0.11 93 1009.5
20260506202538 59 166 0.0 2.0 0.07 0.11 0.11 93 1009.9
20260506202034 59 76 1.0 1.0 0.12 0.10 0.10 93 1009.8
20260506201532 58 113 0.0 1.0 0.07 0.09 0.09 92 1010.1
20260506201028 58 133 1.0 1.0 0.00 0.08 0.08 92 1009.8
20260506200524 58 170 1.0 2.0 0.00 0.08 0.08 92 1009.8
20260506200021 59 153 1.0 2.0 0.00 0.08 0.08 92 1010.0
20260506195518 59 168 2.0 2.0 0.00 0.08 0.08 92 1010.0
20260506195014 59 127 0.0 2.0 0.05 0.08 0.08 92 1010.3
20260506194512 59 114 0.0 1.0 0.05 0.08 0.08 92 1010.3
20260506194009 59 167 2.0 3.0 0.07 0.07 0.07 92 1010.4
20260506193506 59 180 1.0 2.0 0.12 0.07 0.07 92 1010.3
20260506193003 59 150 1.0 1.0 0.05 0.06 0.06 92 1010.5
20260506192500 58 130 1.0 1.0 0.07 0.05 0.05 92 1010.6
20260506191955 59 213 2.0 2.0 0.07 0.05 0.05 91 1010.5
20260506191452 59 160 0.0 1.0 0.00 0.04 0.04 91 1010.7
20260506190949 59 139 1.0 1.0 0.00 0.04 0.04 91 1010.7
20260506190446 59 160 1.0 1.0 0.00 0.04 0.04 91 1010.6
20260506185942 59 119 0.0 0.0 0.00 0.04 0.04 91 1010.3
20260506185440 59 109 0.0 2.0 0.00 0.04 0.04 91 1010.5
20260506184937 59 115 0.0 2.0 0.00 0.04 0.04 91 1010.7
20260506184433 60 238 3.0 3.0 0.00 0.04 0.04 91 1010.7
20260506183931 59 117 0.0 1.0 0.00 0.04 0.04 91 1010.7
20260506183426 60 125 0.0 2.0 0.00 0.04 0.04 91 1010.8
20260506182924 60 149 1.0 1.0 0.00 0.04 0.04 91 1010.8
20260506182421 60 114 0.0 1.0 0.00 0.04 0.04 90 1010.9
20260506181918 60 138 1.0 2.0 0.00 0.04 0.04 90 1011.0
20260506181416 60 130 1.0 2.0 0.00 0.04 0.04 90 1011.2
20260506180912 59 126 1.0 2.0 0.00 0.04 0.04 90 1011.3
20260506180408 59 161 1.0 2.0 0.00 0.04 0.04 90 1011.4
20260506175906 59 142 1.0 2.0 0.05 0.04 0.04 90 1011.4
20260506175402 59 156 1.0 2.0 0.05 0.04 0.04 89 1011.3
20260506174859 59 120 0.0 1.0 0.00 0.03 0.03 89 1011.1
20260506174357 59 205 3.0 3.0 0.07 0.03 0.03 89 1011.2
20260506173854 59 186 3.0 3.0 0.07 0.03 0.03 89 1011.4
20260506173350 59 233 3.0 3.0 0.00 0.02 0.02 89 1011.0
20260506172848 59 117 1.0 3.0 0.00 0.02 0.02 88 1011.2
20260506172344 60 248 3.0 5.0 0.00 0.02 0.02 88 1011.3
20260506171842 60 110 0.0 2.0 0.00 0.02 0.02 88 1011.0
20260506171339 60 127 1.0 3.0 0.00 0.02 0.02 88 1011.4
20260506170836 60 113 0.0 2.0 0.05 0.02 0.02 88 1011.4
20260506170331 60 185 1.0 3.0 0.05 0.02 0.02 87 1011.0
20260506165826 60 116 0.0 2.0 0.00 0.01 0.01 87 1011.6
20260506165323 60 154 2.0 2.0 0.07 0.01 0.01 86 1011.6
20260506164819 61 186 2.0 2.0 0.07 0.01 0.01 86 1011.5
20260506164316 61 114 1.0 2.0 0.00 0.00 0.00 85 1011.8
20260506163813 62 151 2.0 2.0 0.00 0.00 0.00 84 1012.1
20260506163308 62 124 2.0 3.0 0.00 0.00 0.00 83 1012.1
20260506162804 62 120 1.0 2.0 0.00 0.00 0.00 83 1012.2
20260506162306 63 238 2.0 3.0 0.00 0.00 0.00 82 1012.5
20260506161759 63 175 1.0 3.0 0.00 0.00 0.00 82 1012.4
20260506161256 63 136 1.0 2.0 0.00 0.00 0.00 81 1012.4
20260506160754 63 191 2.0 3.0 0.00 0.00 0.00 81 1012.2
20260506160250 63 208 3.0 5.0 0.00 0.00 0.00 80 1012.2
20260506155749 64 180 1.0 2.0 0.00 0.00 0.00 80 1012.5
20260506155245 64 106 2.0 2.0 0.00 0.00 0.00 80 1012.2
20260506153358 64 144 1.0 3.0 0.00 0.00 0.00 79 1012.5
20260506152855 65 139 1.0 5.0 0.00 0.00 0.00 78 1012.6
20260506152352 65 236 3.0 3.0 0.00 0.00 0.00 78 1012.6
20260506151851 65 225 1.0 6.0 0.00 0.00 0.00 78 1012.5
20260506151347 65 157 2.0 2.0 0.00 0.00 0.00 78 1012.5
20260506150845 66 241 4.0 6.0 0.00 0.00 0.00 77 1012.6
20260506150341 66 98 2.0 5.0 0.00 0.00 0.00 78 1012.5
20260506145838 66 279 4.0 8.0 0.00 0.00 0.00 78 1012.7
20260506145334 65 168 1.0 5.0 0.00 0.00 0.00 79 1012.4
20260506144832 65 245 3.0 5.0 0.00 0.00 0.00 79 1012.3